Location: Falniów
(50.3639°N, 19.9642°E)
Time: 20:02:47
(UTC+00:00)

USA 307 - Pass Details

Date: 18 January 2026
Orbit: 495 x 502 km, 54.0° (Epoch: 10 March)

Event Time Altitude Azimuth Distance (km) Brightness Sun altitude
Exits shadow 04:32:58 46° 255° (WSW) 681 2.8 -18.4°
Maximum altitude 04:33:44 56° 212° (SSW) 605 2.8 -18.3°
Drops below altitude 10° 04:37:34 10° 134° (SE) 1,665 6.1 -17.7°
Sets 04:39:41 0° 130° (SE) 2,475 7.2 -17.4°
